Year,Month,Day,Hour,Minute,Value (Times are PST for temperature in C)
2015,02,21,00,00,7.30
2015,02,21,00,01,7.30
2015,02,21,00,02,7.30
2015,02,21,00,03,7.30
2015,02,21,00,04,7.30
2015,02,21,00,05,7.30
2015,02,21,00,06,7.30
2015,02,21,00,07,7.30
2015,02,21,00,08,7.30
2015,02,21,00,09,7.30
2015,02,21,00,10,7.30
2015,02,21,00,11,7.30
2015,02,21,00,12,7.20
2015,02,21,00,13,7.20
2015,02,21,00,14,7.20
2015,02,21,00,15,7.20
2015,02,21,00,16,7.20
2015,02,21,00,17,7.20
2015,02,21,00,18,7.20
2015,02,21,00,19,7.20
2015,02,21,00,20,7.10
2015,02,21,00,21,7.10
2015,02,21,00,22,7.10
2015,02,21,00,23,7.10
2015,02,21,00,24,7.10
2015,02,21,00,25,7.10
2015,02,21,00,26,7.10
2015,02,21,00,27,7.10
2015,02,21,00,28,7.10
2015,02,21,00,29,7.10
2015,02,21,00,30,7.10
2015,02,21,00,31,7.10
2015,02,21,00,32,7.00
2015,02,21,00,33,7.00
2015,02,21,00,34,7.00
2015,02,21,00,35,7.00
2015,02,21,00,36,7.00
2015,02,21,00,37,7.00
2015,02,21,00,38,7.00
2015,02,21,00,39,7.00
2015,02,21,00,40,7.00
2015,02,21,00,41,6.90
2015,02,21,00,42,6.90
2015,02,21,00,43,6.90
2015,02,21,00,44,6.90
2015,02,21,00,45,6.90
2015,02,21,00,46,6.90
2015,02,21,00,47,6.90
2015,02,21,00,48,6.90
2015,02,21,00,49,6.90
2015,02,21,00,50,6.90
2015,02,21,00,51,6.80
2015,02,21,00,52,6.80
2015,02,21,00,53,6.80
2015,02,21,00,54,6.80
2015,02,21,00,55,6.80
2015,02,21,00,56,6.80
2015,02,21,00,57,6.80
2015,02,21,00,58,6.80
2015,02,21,00,59,6.80
2015,02,21,01,00,6.80
2015,02,21,01,01,6.70
2015,02,21,01,02,6.70
2015,02,21,01,03,6.70
2015,02,21,01,04,6.70
2015,02,21,01,05,6.70
2015,02,21,01,06,6.70
2015,02,21,01,07,6.70
2015,02,21,01,08,6.70
2015,02,21,01,09,6.70
2015,02,21,01,10,6.60
2015,02,21,01,11,6.60
2015,02,21,01,12,6.60
2015,02,21,01,13,6.60
2015,02,21,01,14,6.60
2015,02,21,01,15,6.60
2015,02,21,01,16,6.60
2015,02,21,01,17,6.60
2015,02,21,01,18,6.60
2015,02,21,01,19,6.60
2015,02,21,01,20,6.60
2015,02,21,01,21,6.60
2015,02,21,01,22,6.60
2015,02,21,01,23,6.60
2015,02,21,01,24,6.60
2015,02,21,01,25,6.60
2015,02,21,01,26,6.60
2015,02,21,01,27,6.60
2015,02,21,01,28,6.60
2015,02,21,01,29,6.60
2015,02,21,01,30,6.50
2015,02,21,01,31,6.50
2015,02,21,01,32,6.50
2015,02,21,01,33,6.50
2015,02,21,01,34,6.50
2015,02,21,01,35,6.50
2015,02,21,01,36,6.50
2015,02,21,01,37,6.40
2015,02,21,01,38,6.40
2015,02,21,01,39,6.40
2015,02,21,01,40,6.40
2015,02,21,01,41,6.40
2015,02,21,01,42,6.30
2015,02,21,01,43,6.30
2015,02,21,01,44,6.30
2015,02,21,01,45,6.30
2015,02,21,01,46,6.30
2015,02,21,01,47,6.20
2015,02,21,01,48,6.20
2015,02,21,01,49,6.20
2015,02,21,01,50,6.20
2015,02,21,01,51,6.20
2015,02,21,01,52,6.20
2015,02,21,01,53,6.10
2015,02,21,01,54,6.10
2015,02,21,01,55,6.10
2015,02,21,01,56,6.10
2015,02,21,01,57,6.10
2015,02,21,01,58,6.10
2015,02,21,01,59,6.10
2015,02,21,02,00,6.00
2015,02,21,02,01,6.00
2015,02,21,02,02,6.00
2015,02,21,02,03,6.00
2015,02,21,02,04,6.00
2015,02,21,02,05,5.90
2015,02,21,02,06,5.90
2015,02,21,02,07,5.90
2015,02,21,02,08,5.90
2015,02,21,02,09,5.80
2015,02,21,02,10,5.80
2015,02,21,02,11,5.80
2015,02,21,02,12,5.80
2015,02,21,02,13,5.70
2015,02,21,02,14,5.70
2015,02,21,02,15,5.70
2015,02,21,02,16,5.70
2015,02,21,02,17,5.60
2015,02,21,02,18,5.60
2015,02,21,02,19,5.60
2015,02,21,02,20,5.50
2015,02,21,02,21,5.50
2015,02,21,02,22,5.50
2015,02,21,02,23,5.40
2015,02,21,02,24,5.40
2015,02,21,02,25,5.40
2015,02,21,02,26,5.40
2015,02,21,02,27,5.40
2015,02,21,02,28,5.40
2015,02,21,02,29,5.30
2015,02,21,02,30,5.30
2015,02,21,02,31,5.30
2015,02,21,02,32,5.30
2015,02,21,02,33,5.30
2015,02,21,02,34,5.30
2015,02,21,02,35,5.30
2015,02,21,02,36,5.30
2015,02,21,02,37,5.20
2015,02,21,02,38,5.20
2015,02,21,02,39,5.20
2015,02,21,02,40,5.20
2015,02,21,02,41,5.20
2015,02,21,02,42,5.20
2015,02,21,02,43,5.20
2015,02,21,02,44,5.20
2015,02,21,02,45,5.20
2015,02,21,02,46,5.20
2015,02,21,02,47,5.10
2015,02,21,02,48,5.10
2015,02,21,02,49,5.10
2015,02,21,02,50,5.10
2015,02,21,02,51,5.10
2015,02,21,02,52,5.10
2015,02,21,02,53,5.00
2015,02,21,02,54,5.00
2015,02,21,02,55,5.00
2015,02,21,02,56,4.90
2015,02,21,02,57,4.90
2015,02,21,02,58,4.90
2015,02,21,02,59,4.90
2015,02,21,03,00,4.90
2015,02,21,03,01,4.90
2015,02,21,03,02,4.90
2015,02,21,03,03,4.80
2015,02,21,03,04,4.80
2015,02,21,03,05,4.80
2015,02,21,03,06,4.80
2015,02,21,03,07,4.80
2015,02,21,03,08,4.80
2015,02,21,03,09,4.80
2015,02,21,03,10,4.80
2015,02,21,03,11,4.70
2015,02,21,03,12,4.70
2015,02,21,03,13,4.70
2015,02,21,03,14,4.70
2015,02,21,03,15,4.70
2015,02,21,03,16,4.70
2015,02,21,03,17,4.70
2015,02,21,03,18,4.70
2015,02,21,03,19,4.70
2015,02,21,03,20,4.70
2015,02,21,03,21,4.70
2015,02,21,03,22,4.70
2015,02,21,03,23,4.60
2015,02,21,03,24,4.60
2015,02,21,03,25,4.60
2015,02,21,03,26,4.60
2015,02,21,03,27,4.60
2015,02,21,03,28,4.50
2015,02,21,03,29,4.50
2015,02,21,03,30,4.50
2015,02,21,03,31,4.50
2015,02,21,03,32,4.50
2015,02,21,03,33,4.50
2015,02,21,03,34,4.50
2015,02,21,03,35,4.50
2015,02,21,03,36,4.50
2015,02,21,03,37,4.50
2015,02,21,03,38,4.50
2015,02,21,03,39,4.50
2015,02,21,03,40,4.40
2015,02,21,03,41,4.40
2015,02,21,03,42,4.40
2015,02,21,03,43,4.40
2015,02,21,03,44,4.30
2015,02,21,03,45,4.30
2015,02,21,03,46,4.30
2015,02,21,03,47,4.30
2015,02,21,03,48,4.20
2015,02,21,03,49,4.20
2015,02,21,03,50,4.20
2015,02,21,03,51,4.30
2015,02,21,03,52,4.30
2015,02,21,03,53,4.30
2015,02,21,03,54,4.30
2015,02,21,03,55,4.40
2015,02,21,03,56,4.40
2015,02,21,03,57,4.40
2015,02,21,03,58,4.40
2015,02,21,03,59,4.40
2015,02,21,04,00,4.40
2015,02,21,04,01,4.40
2015,02,21,04,02,4.40
2015,02,21,04,03,4.40
2015,02,21,04,04,4.40
2015,02,21,04,05,4.40
2015,02,21,04,06,4.40
2015,02,21,04,07,4.40
2015,02,21,04,08,4.40
2015,02,21,04,09,4.50
2015,02,21,04,10,4.50
2015,02,21,04,11,4.60
2015,02,21,04,12,4.60
2015,02,21,04,13,4.60
2015,02,21,04,14,4.70
2015,02,21,04,15,4.70
2015,02,21,04,16,4.70
2015,02,21,04,17,4.70
2015,02,21,04,18,4.70
2015,02,21,04,19,4.70
2015,02,21,04,20,4.70
2015,02,21,04,21,4.60
2015,02,21,04,22,4.70
2015,02,21,04,23,4.70
2015,02,21,04,24,4.70
2015,02,21,04,25,4.70
2015,02,21,04,26,4.80
2015,02,21,04,27,4.80
2015,02,21,04,28,4.80
2015,02,21,04,29,4.90
2015,02,21,04,30,4.90
2015,02,21,04,31,5.00
2015,02,21,04,32,5.10
2015,02,21,04,33,5.10
2015,02,21,04,34,5.10
2015,02,21,04,35,5.10
2015,02,21,04,36,5.10
2015,02,21,04,37,5.20
2015,02,21,04,38,5.20
2015,02,21,04,39,5.20
2015,02,21,04,40,5.20
2015,02,21,04,41,5.20
2015,02,21,04,42,5.20
2015,02,21,04,43,5.20
2015,02,21,04,44,5.20
2015,02,21,04,45,5.20
2015,02,21,04,46,5.20
2015,02,21,04,47,5.20
2015,02,21,04,48,5.20
2015,02,21,04,49,5.20
2015,02,21,04,50,5.20
2015,02,21,04,51,5.20
2015,02,21,04,52,5.20
2015,02,21,04,53,5.20
2015,02,21,04,54,5.20
2015,02,21,04,55,5.10
2015,02,21,04,56,5.10
2015,02,21,04,57,5.10
2015,02,21,04,58,5.00
2015,02,21,04,59,5.00
2015,02,21,05,00,5.00
2015,02,21,05,01,4.90
2015,02,21,05,02,4.90
2015,02,21,05,03,4.90
2015,02,21,05,04,4.80
2015,02,21,05,05,4.80
2015,02,21,05,06,4.80
2015,02,21,05,07,4.80
2015,02,21,05,08,4.80
2015,02,21,05,09,4.70
2015,02,21,05,10,4.70
2015,02,21,05,11,4.70
2015,02,21,05,12,4.80
2015,02,21,05,13,4.80
2015,02,21,05,14,4.80
2015,02,21,05,15,4.90
2015,02,21,05,16,4.90
2015,02,21,05,17,4.90
2015,02,21,05,18,4.90
2015,02,21,05,19,4.90
2015,02,21,05,20,5.00
2015,02,21,05,21,5.00
2015,02,21,05,22,5.00
2015,02,21,05,23,5.00
2015,02,21,05,24,5.10
2015,02,21,05,25,5.10
2015,02,21,05,26,5.10
2015,02,21,05,27,5.10
2015,02,21,05,28,5.10
2015,02,21,05,29,5.20
2015,02,21,05,30,5.20
2015,02,21,05,31,5.20
2015,02,21,05,32,5.20
2015,02,21,05,33,5.20
2015,02,21,05,34,5.20
2015,02,21,05,35,5.30
2015,02,21,05,36,5.30
2015,02,21,05,37,5.30
2015,02,21,05,38,5.30
2015,02,21,05,39,5.30
2015,02,21,05,40,5.30
2015,02,21,05,41,5.30
2015,02,21,05,42,5.20
2015,02,21,05,43,5.20
2015,02,21,05,44,5.20
2015,02,21,05,45,5.20
2015,02,21,05,46,5.20
2015,02,21,05,47,5.20
2015,02,21,05,48,5.20
2015,02,21,05,49,5.20
2015,02,21,05,50,5.20
2015,02,21,05,51,5.20
2015,02,21,05,52,5.20
2015,02,21,05,53,5.10
2015,02,21,05,54,5.10
2015,02,21,05,55,5.10
2015,02,21,05,56,5.10
2015,02,21,05,57,5.10
2015,02,21,05,58,5.00
2015,02,21,05,59,5.00
2015,02,21,06,00,4.90
2015,02,21,06,01,4.90
2015,02,21,06,02,4.90
2015,02,21,06,03,4.80
2015,02,21,06,04,4.80
2015,02,21,06,05,4.80
2015,02,21,06,06,4.80
2015,02,21,06,07,4.70
2015,02,21,06,08,4.70
2015,02,21,06,09,4.70
2015,02,21,06,10,4.70
2015,02,21,06,11,4.60
2015,02,21,06,12,4.60
2015,02,21,06,13,4.60
2015,02,21,06,14,4.50
2015,02,21,06,15,4.50
2015,02,21,06,16,4.50
2015,02,21,06,17,4.50
2015,02,21,06,18,4.50
2015,02,21,06,19,4.40
2015,02,21,06,20,4.40
2015,02,21,06,21,4.30
2015,02,21,06,22,4.30
2015,02,21,06,23,4.30
2015,02,21,06,24,4.30
2015,02,21,06,25,4.30
2015,02,21,06,26,4.30
2015,02,21,06,27,4.30
2015,02,21,06,28,4.30
2015,02,21,06,29,4.30
2015,02,21,06,30,4.30
2015,02,21,06,31,4.30
2015,02,21,06,32,4.40
2015,02,21,06,33,4.40
2015,02,21,06,34,4.50
2015,02,21,06,35,4.50
2015,02,21,06,36,4.50
2015,02,21,06,37,4.60
2015,02,21,06,38,4.60
2015,02,21,06,39,4.60
2015,02,21,06,40,4.70
2015,02,21,06,41,4.80
2015,02,21,06,42,4.90
2015,02,21,06,43,5.00
2015,02,21,06,44,5.10
2015,02,21,06,45,5.10
2015,02,21,06,46,5.20
2015,02,21,06,47,5.20
2015,02,21,06,48,5.20
2015,02,21,06,49,5.30
2015,02,21,06,50,5.30
2015,02,21,06,51,5.30
2015,02,21,06,52,5.30
2015,02,21,06,53,5.40
2015,02,21,06,54,5.30
2015,02,21,06,55,5.40
2015,02,21,06,56,5.40
2015,02,21,06,57,5.40
2015,02,21,06,58,5.40
2015,02,21,06,59,5.40
2015,02,21,07,00,5.40
2015,02,21,07,01,5.40
2015,02,21,07,02,5.30
2015,02,21,07,03,5.30
2015,02,21,07,04,5.30
2015,02,21,07,05,5.30
2015,02,21,07,06,5.30
2015,02,21,07,07,5.30
2015,02,21,07,08,5.30
2015,02,21,07,09,5.30
2015,02,21,07,10,5.30
2015,02,21,07,11,5.30
2015,02,21,07,12,5.20
2015,02,21,07,13,5.20
2015,02,21,07,14,5.20
2015,02,21,07,15,5.20
2015,02,21,07,16,5.20
2015,02,21,07,17,5.20
2015,02,21,07,18,5.20
2015,02,21,07,19,5.20
2015,02,21,07,20,5.20
2015,02,21,07,21,5.20
2015,02,21,07,22,5.20
2015,02,21,07,23,5.20
2015,02,21,07,24,5.20
2015,02,21,07,25,5.20
2015,02,21,07,26,5.20
2015,02,21,07,27,5.20
2015,02,21,07,28,5.20
2015,02,21,07,29,5.20
2015,02,21,07,30,5.20
2015,02,21,07,31,5.10
2015,02,21,07,32,5.10
2015,02,21,07,33,5.10
2015,02,21,07,34,5.10
2015,02,21,07,35,5.10
2015,02,21,07,36,5.20
2015,02,21,07,37,5.20
2015,02,21,07,38,5.20
2015,02,21,07,39,5.20
2015,02,21,07,40,5.20
2015,02,21,07,41,5.20
2015,02,21,07,42,5.20
2015,02,21,07,43,5.20
2015,02,21,07,44,5.20
2015,02,21,07,45,5.20
2015,02,21,07,46,5.20
2015,02,21,07,47,5.30
2015,02,21,07,48,5.30
2015,02,21,07,49,5.30
2015,02,21,07,50,5.30
2015,02,21,07,51,5.40
2015,02,21,07,52,5.40
2015,02,21,07,53,5.40
2015,02,21,07,54,5.50
2015,02,21,07,55,5.50
2015,02,21,07,56,5.60
2015,02,21,07,57,5.60
2015,02,21,07,58,5.70
2015,02,21,07,59,5.70
2015,02,21,08,00,5.80
2015,02,21,08,01,5.80
2015,02,21,08,02,5.90
2015,02,21,08,03,5.90
2015,02,21,08,04,6.00
2015,02,21,08,05,6.10
2015,02,21,08,06,6.10
2015,02,21,08,07,6.20
2015,02,21,08,08,6.20
2015,02,21,08,09,6.30
2015,02,21,08,10,6.30
2015,02,21,08,11,6.30
2015,02,21,08,12,6.30
2015,02,21,08,13,6.40
2015,02,21,08,14,6.40
2015,02,21,08,15,6.40
2015,02,21,08,16,6.50
2015,02,21,08,17,6.50
2015,02,21,08,18,6.60
2015,02,21,08,19,6.60
2015,02,21,08,20,6.60
2015,02,21,08,21,6.70
2015,02,21,08,22,6.70
2015,02,21,08,23,6.70
2015,02,21,08,24,6.70
2015,02,21,08,25,6.80
2015,02,21,08,26,6.80
2015,02,21,08,27,6.80
2015,02,21,08,28,6.90
2015,02,21,08,29,6.90
2015,02,21,08,30,7.00
2015,02,21,08,31,7.00
2015,02,21,08,32,7.00
2015,02,21,08,33,7.10
2015,02,21,08,34,7.10
2015,02,21,08,35,7.10
2015,02,21,08,36,7.20
2015,02,21,08,37,7.20
2015,02,21,08,38,7.20
2015,02,21,08,39,7.20
2015,02,21,08,40,7.20
2015,02,21,08,41,7.30
2015,02,21,08,42,7.30
2015,02,21,08,43,7.30
2015,02,21,08,44,7.30
2015,02,21,08,45,7.30
2015,02,21,08,46,7.30
2015,02,21,08,47,7.40
2015,02,21,08,48,7.40
2015,02,21,08,49,7.40
2015,02,21,08,50,7.40
2015,02,21,08,51,7.40
2015,02,21,08,52,7.50
2015,02,21,08,53,7.50
2015,02,21,08,54,7.50
2015,02,21,08,55,7.60
2015,02,21,08,56,7.60
2015,02,21,08,57,7.60
2015,02,21,08,58,7.60
2015,02,21,08,59,7.70
2015,02,21,09,00,7.70
2015,02,21,09,01,7.80
2015,02,21,09,02,7.80
2015,02,21,09,03,7.90
2015,02,21,09,04,7.90
2015,02,21,09,05,8.00
2015,02,21,09,06,8.10
2015,02,21,09,07,8.20
2015,02,21,09,08,8.20
2015,02,21,09,09,8.30
2015,02,21,09,10,8.30
2015,02,21,09,11,8.40
2015,02,21,09,12,8.40
2015,02,21,09,13,8.40
2015,02,21,09,14,8.40
2015,02,21,09,15,8.40
2015,02,21,09,16,8.40
2015,02,21,09,17,8.40
2015,02,21,09,18,8.40
2015,02,21,09,19,8.40
2015,02,21,09,20,8.40
2015,02,21,09,21,8.30
2015,02,21,09,22,8.30
2015,02,21,09,23,8.40
2015,02,21,09,24,8.40
2015,02,21,09,25,8.40
2015,02,21,09,26,8.40
2015,02,21,09,27,8.40
2015,02,21,09,28,8.40
2015,02,21,09,29,8.40
2015,02,21,09,30,8.40
2015,02,21,09,31,8.40
2015,02,21,09,32,8.40
2015,02,21,09,33,8.50
2015,02,21,09,34,8.50
2015,02,21,09,35,8.50
2015,02,21,09,36,8.50
2015,02,21,09,37,8.50
2015,02,21,09,38,8.60
2015,02,21,09,39,8.60
2015,02,21,09,40,8.60
2015,02,21,09,41,8.60
2015,02,21,09,42,8.60
2015,02,21,09,43,8.60
2015,02,21,09,44,8.60
2015,02,21,09,45,8.60
2015,02,21,09,46,8.60
2015,02,21,09,47,8.60
2015,02,21,09,48,8.70
2015,02,21,09,49,8.70
2015,02,21,09,50,8.70
2015,02,21,09,51,8.70
2015,02,21,09,52,8.80
2015,02,21,09,53,8.80
2015,02,21,09,54,8.80
2015,02,21,09,55,8.80
2015,02,21,09,56,8.80
2015,02,21,09,57,8.80
2015,02,21,09,58,8.90
2015,02,21,09,59,8.90
2015,02,21,10,00,8.90
2015,02,21,10,01,8.90
2015,02,21,10,02,9.00
2015,02,21,10,03,9.00
2015,02,21,10,04,9.10
2015,02,21,10,05,9.10
2015,02,21,10,06,9.10
2015,02,21,10,07,9.10
2015,02,21,10,08,9.20
2015,02,21,10,09,9.20
2015,02,21,10,10,9.20
2015,02,21,10,11,9.30
2015,02,21,10,12,9.30
2015,02,21,10,13,9.30
2015,02,21,10,14,9.30
2015,02,21,10,15,9.40
2015,02,21,10,16,9.40
2015,02,21,10,17,9.40
2015,02,21,10,18,9.40
2015,02,21,10,19,9.40
2015,02,21,10,20,9.40
2015,02,21,10,21,9.50
2015,02,21,10,22,9.50
2015,02,21,10,23,9.60
2015,02,21,10,24,9.60
2015,02,21,10,25,9.60
2015,02,21,10,26,9.60
2015,02,21,10,27,9.60
2015,02,21,10,28,9.60
2015,02,21,10,29,9.60
2015,02,21,10,30,9.70
2015,02,21,10,31,9.70
2015,02,21,10,32,9.70
2015,02,21,10,33,9.80
2015,02,21,10,34,9.80
2015,02,21,10,35,9.80
2015,02,21,10,36,9.90
2015,02,21,10,37,9.90
2015,02,21,10,38,9.90
2015,02,21,10,39,9.90
2015,02,21,10,40,9.90
2015,02,21,10,41,9.90
2015,02,21,10,42,10.00
2015,02,21,10,43,10.00
2015,02,21,10,44,10.00
2015,02,21,10,45,10.10
2015,02,21,10,46,10.10
2015,02,21,10,47,10.20
2015,02,21,10,48,10.20
2015,02,21,10,49,10.30
2015,02,21,10,50,10.30
2015,02,21,10,51,10.30
2015,02,21,10,52,10.40
2015,02,21,10,53,10.40
2015,02,21,10,54,10.40
2015,02,21,10,55,10.40
2015,02,21,10,56,10.40
2015,02,21,10,57,10.40
2015,02,21,10,58,10.40
2015,02,21,10,59,10.40
2015,02,21,11,00,10.50
2015,02,21,11,01,10.50
2015,02,21,11,02,10.60
2015,02,21,11,03,10.60
2015,02,21,11,04,10.60
2015,02,21,11,05,10.60
2015,02,21,11,06,10.70
2015,02,21,11,07,10.70
2015,02,21,11,08,10.70
2015,02,21,11,09,10.70
2015,02,21,11,10,10.70
2015,02,21,11,11,10.70
2015,02,21,11,12,10.80
2015,02,21,11,13,10.80
2015,02,21,11,14,10.80
2015,02,21,11,15,10.80
2015,02,21,11,16,10.80
2015,02,21,11,17,10.80
2015,02,21,11,18,10.80
2015,02,21,11,19,10.90
2015,02,21,11,20,10.90
2015,02,21,11,21,10.90
2015,02,21,11,22,11.00
2015,02,21,11,23,11.00
2015,02,21,11,24,11.10
2015,02,21,11,25,11.10
2015,02,21,11,26,11.10
2015,02,21,11,27,11.10
2015,02,21,11,28,11.20
2015,02,21,11,29,11.20
2015,02,21,11,30,11.20
2015,02,21,11,31,11.20
2015,02,21,11,32,11.30
2015,02,21,11,33,11.30
2015,02,21,11,34,11.30
2015,02,21,11,35,11.30
2015,02,21,11,36,11.30
2015,02,21,11,37,11.30
2015,02,21,11,38,11.40
2015,02,21,11,39,11.40
2015,02,21,11,40,11.40
2015,02,21,11,41,11.40
2015,02,21,11,42,11.50
2015,02,21,11,43,11.50
2015,02,21,11,44,11.50
2015,02,21,11,45,11.60
2015,02,21,11,46,11.60
2015,02,21,11,47,11.60
2015,02,21,11,48,11.60
2015,02,21,11,49,11.70
2015,02,21,11,50,11.70
2015,02,21,11,51,11.70
2015,02,21,11,52,11.70
2015,02,21,11,53,11.70
2015,02,21,11,54,11.70
2015,02,21,11,55,11.70
2015,02,21,11,56,11.70
2015,02,21,11,57,11.70
2015,02,21,11,58,11.70
2015,02,21,11,59,11.70
2015,02,21,12,00,11.80
2015,02,21,12,01,11.80
2015,02,21,12,02,11.70
2015,02,21,12,03,11.70
2015,02,21,12,04,11.70
2015,02,21,12,05,11.80
2015,02,21,12,06,11.80
2015,02,21,12,07,11.80
2015,02,21,12,08,11.80
2015,02,21,12,09,11.90
2015,02,21,12,10,11.90
2015,02,21,12,11,11.90
2015,02,21,12,12,11.90
2015,02,21,12,13,11.90
2015,02,21,12,14,11.80
2015,02,21,12,15,11.80
2015,02,21,12,16,11.80
2015,02,21,12,17,11.80
2015,02,21,12,18,11.80
2015,02,21,12,19,11.70
2015,02,21,12,20,11.70
2015,02,21,12,21,11.80
2015,02,21,12,22,11.80
2015,02,21,12,23,11.80
2015,02,21,12,24,11.90
2015,02,21,12,25,11.90
2015,02,21,12,26,11.90
2015,02,21,12,27,11.90
2015,02,21,12,28,12.00
2015,02,21,12,29,12.00
2015,02,21,12,30,12.00
2015,02,21,12,31,12.00
2015,02,21,12,32,12.00
2015,02,21,12,33,12.00
2015,02,21,12,34,11.90
2015,02,21,12,35,11.90
2015,02,21,12,36,11.90
2015,02,21,12,37,11.90
2015,02,21,12,38,11.80
2015,02,21,12,39,11.80
2015,02,21,12,40,11.80
2015,02,21,12,41,11.90
2015,02,21,12,42,11.90
2015,02,21,12,43,11.90
2015,02,21,12,44,11.90
2015,02,21,12,45,11.90
2015,02,21,12,46,11.90
2015,02,21,12,47,11.90
2015,02,21,12,48,11.90
2015,02,21,12,49,11.90
2015,02,21,12,50,11.80
2015,02,21,12,51,11.80
2015,02,21,12,52,11.80
2015,02,21,12,53,11.80
2015,02,21,12,54,11.80
2015,02,21,12,55,11.70
2015,02,21,12,56,11.70
2015,02,21,12,57,11.70
2015,02,21,12,58,11.70
2015,02,21,12,59,11.80
2015,02,21,13,00,11.80
2015,02,21,13,01,11.80
2015,02,21,13,02,11.80
2015,02,21,13,03,11.80
2015,02,21,13,04,11.80
2015,02,21,13,05,11.80
2015,02,21,13,06,11.80
2015,02,21,13,07,11.80
2015,02,21,13,08,11.90
2015,02,21,13,09,11.90
2015,02,21,13,10,12.00
2015,02,21,13,11,12.00
2015,02,21,13,12,12.10
2015,02,21,13,13,12.10
2015,02,21,13,14,12.00
2015,02,21,13,15,11.90
2015,02,21,13,16,11.90
2015,02,21,13,17,11.80
2015,02,21,13,18,11.80
2015,02,21,13,19,11.80
2015,02,21,13,20,11.80
2015,02,21,13,21,11.80
2015,02,21,13,22,11.90
2015,02,21,13,23,11.90
2015,02,21,13,24,11.90
2015,02,21,13,25,11.90
2015,02,21,13,26,12.00
2015,02,21,13,27,12.00
2015,02,21,13,28,12.10
2015,02,21,13,29,12.10
2015,02,21,13,30,12.10
2015,02,21,13,31,12.10
2015,02,21,13,32,12.10
2015,02,21,13,33,12.10
2015,02,21,13,34,12.10
2015,02,21,13,35,12.10
2015,02,21,13,36,12.10
2015,02,21,13,37,12.20
2015,02,21,13,38,12.20
2015,02,21,13,39,12.20
2015,02,21,13,40,12.20
2015,02,21,13,41,12.20
2015,02,21,13,42,12.20
2015,02,21,13,43,12.20
2015,02,21,13,44,12.20
2015,02,21,13,45,12.10
2015,02,21,13,46,12.10
2015,02,21,13,47,12.10
2015,02,21,13,48,12.10
2015,02,21,13,49,12.10
2015,02,21,13,50,12.10
2015,02,21,13,51,12.10
2015,02,21,13,52,12.10
2015,02,21,13,53,12.10
2015,02,21,13,54,12.10
2015,02,21,13,55,12.10
2015,02,21,13,56,12.10
2015,02,21,13,57,12.10
2015,02,21,13,58,12.20
2015,02,21,13,59,12.20
2015,02,21,14,00,12.20
2015,02,21,14,01,12.20
2015,02,21,14,02,12.20
2015,02,21,14,03,12.30
2015,02,21,14,04,12.30
2015,02,21,14,05,12.30
2015,02,21,14,06,12.30
2015,02,21,14,07,12.40
2015,02,21,14,08,12.40
2015,02,21,14,09,12.40
2015,02,21,14,10,12.40
2015,02,21,14,11,12.40
2015,02,21,14,12,12.30
2015,02,21,14,13,12.30
2015,02,21,14,14,12.30
2015,02,21,14,15,12.30
2015,02,21,14,16,12.30
2015,02,21,14,17,12.30
2015,02,21,14,18,12.30
2015,02,21,14,19,12.30
2015,02,21,14,20,12.40
2015,02,21,14,21,12.40
2015,02,21,14,22,12.40
2015,02,21,14,23,12.40
2015,02,21,14,24,12.40
2015,02,21,14,25,12.40
2015,02,21,14,26,12.50
2015,02,21,14,27,12.50
2015,02,21,14,28,12.50
2015,02,21,14,29,12.60
2015,02,21,14,30,12.60
2015,02,21,14,31,12.60
2015,02,21,14,32,12.60
2015,02,21,14,33,12.60
2015,02,21,14,34,12.60
2015,02,21,14,35,12.60
2015,02,21,14,36,12.60
2015,02,21,14,37,12.60
2015,02,21,14,38,12.60
2015,02,21,14,39,12.60
2015,02,21,14,40,12.60
2015,02,21,14,41,12.60
2015,02,21,14,42,12.60
2015,02,21,14,43,12.60
2015,02,21,14,44,12.60
2015,02,21,14,45,12.60
2015,02,21,14,46,12.60
2015,02,21,14,47,12.60
2015,02,21,14,48,12.60
2015,02,21,14,49,12.60
2015,02,21,14,50,12.70
2015,02,21,14,51,12.70
2015,02,21,14,52,12.70
2015,02,21,14,53,12.60
2015,02,21,14,54,12.60
2015,02,21,14,55,12.60
2015,02,21,14,56,12.60
2015,02,21,14,57,12.60
2015,02,21,14,58,12.60
2015,02,21,14,59,12.60
2015,02,21,15,00,12.50
2015,02,21,15,01,12.50
2015,02,21,15,02,12.50
2015,02,21,15,03,12.50
2015,02,21,15,04,12.50
2015,02,21,15,05,12.50
2015,02,21,15,06,12.50
2015,02,21,15,07,12.50
2015,02,21,15,08,12.50
2015,02,21,15,09,12.50
2015,02,21,15,10,12.50
2015,02,21,15,11,12.60
2015,02,21,15,12,12.60
2015,02,21,15,13,12.60
2015,02,21,15,14,12.60
2015,02,21,15,15,12.60
2015,02,21,15,16,12.60
2015,02,21,15,17,12.70
2015,02,21,15,18,12.70
2015,02,21,15,19,12.70
2015,02,21,15,20,12.70
2015,02,21,15,21,12.70
2015,02,21,15,22,12.60
2015,02,21,15,23,12.60
2015,02,21,15,24,12.60
2015,02,21,15,25,12.50
2015,02,21,15,26,12.50
2015,02,21,15,27,12.50
2015,02,21,15,28,12.60
2015,02,21,15,29,12.60
2015,02,21,15,30,12.60
2015,02,21,15,31,12.60
2015,02,21,15,32,12.60
2015,02,21,15,33,12.60
2015,02,21,15,34,12.60
2015,02,21,15,35,12.60
2015,02,21,15,36,12.60
2015,02,21,15,37,12.60
2015,02,21,15,38,12.60
2015,02,21,15,39,12.60
2015,02,21,15,40,12.60
2015,02,21,15,41,12.50
2015,02,21,15,42,12.60
2015,02,21,15,43,12.60
2015,02,21,15,44,12.60
2015,02,21,15,45,12.60
2015,02,21,15,46,12.60
2015,02,21,15,47,12.60
2015,02,21,15,48,12.60
2015,02,21,15,49,12.60
2015,02,21,15,50,12.60
2015,02,21,15,51,12.50
2015,02,21,15,52,12.50
2015,02,21,15,53,12.40
2015,02,21,15,54,12.40
2015,02,21,15,55,12.40
2015,02,21,15,56,12.40
2015,02,21,15,57,12.30
2015,02,21,15,58,12.30
2015,02,21,15,59,12.30
2015,02,21,16,00,12.30
2015,02,21,16,01,12.40
2015,02,21,16,02,12.40
2015,02,21,16,03,12.40
2015,02,21,16,04,12.40
2015,02,21,16,05,12.40
2015,02,21,16,06,12.40
2015,02,21,16,07,12.40
2015,02,21,16,08,12.40
2015,02,21,16,09,12.40
2015,02,21,16,10,12.40
2015,02,21,16,11,12.40
2015,02,21,16,12,12.40
2015,02,21,16,13,12.40
2015,02,21,16,14,12.30
2015,02,21,16,15,12.30
2015,02,21,16,16,12.30
2015,02,21,16,17,12.30
2015,02,21,16,18,12.40
2015,02,21,16,19,12.40
2015,02,21,16,20,12.40
2015,02,21,16,21,12.40
2015,02,21,16,22,12.40
2015,02,21,16,23,12.40
2015,02,21,16,24,12.40
2015,02,21,16,25,12.30
2015,02,21,16,26,12.30
2015,02,21,16,27,12.30
2015,02,21,16,28,12.30
2015,02,21,16,29,12.30
2015,02,21,16,30,12.30
2015,02,21,16,31,12.30
2015,02,21,16,32,12.30
2015,02,21,16,33,12.30
2015,02,21,16,34,12.30
2015,02,21,16,35,12.30
2015,02,21,16,36,12.30
2015,02,21,16,37,12.30
2015,02,21,16,38,12.30
2015,02,21,16,39,12.30
2015,02,21,16,40,12.30
2015,02,21,16,41,12.20
2015,02,21,16,42,12.20
2015,02,21,16,43,12.20
2015,02,21,16,44,12.20
2015,02,21,16,45,12.20
2015,02,21,16,46,12.30
2015,02,21,16,47,12.30
2015,02,21,16,48,12.30
2015,02,21,16,49,12.30
2015,02,21,16,50,12.30
2015,02,21,16,51,12.30
2015,02,21,16,52,12.30
2015,02,21,16,53,12.30
2015,02,21,16,54,12.30
2015,02,21,16,55,12.30
2015,02,21,16,56,12.20
2015,02,21,16,57,12.20
2015,02,21,16,58,12.20
2015,02,21,16,59,12.20
2015,02,21,17,00,12.20
2015,02,21,17,01,12.20
2015,02,21,17,02,12.20
2015,02,21,17,03,12.20
2015,02,21,17,04,12.10
2015,02,21,17,05,12.10
2015,02,21,17,06,12.10
2015,02,21,17,07,12.10
2015,02,21,17,08,12.00
2015,02,21,17,09,12.00
2015,02,21,17,10,12.00
2015,02,21,17,11,12.00
2015,02,21,17,12,11.90
2015,02,21,17,13,11.90
2015,02,21,17,14,11.90
2015,02,21,17,15,11.80
2015,02,21,17,16,11.80
2015,02,21,17,17,11.80
2015,02,21,17,18,11.70
2015,02,21,17,19,11.70
2015,02,21,17,20,11.70
2015,02,21,17,21,11.60
2015,02,21,17,22,11.60
2015,02,21,17,23,11.60
2015,02,21,17,24,11.50
2015,02,21,17,25,11.50
2015,02,21,17,26,11.50
2015,02,21,17,27,11.40
2015,02,21,17,28,11.40
2015,02,21,17,29,11.30
2015,02,21,17,30,11.30
2015,02,21,17,31,11.30
2015,02,21,17,32,11.20
2015,02,21,17,33,11.20
2015,02,21,17,34,11.20
2015,02,21,17,35,11.10
2015,02,21,17,36,11.10
2015,02,21,17,37,11.00
2015,02,21,17,38,11.00
2015,02,21,17,39,11.00
2015,02,21,17,40,10.90
2015,02,21,17,41,10.90
2015,02,21,17,42,10.80
2015,02,21,17,43,10.80
2015,02,21,17,44,10.80
2015,02,21,17,45,10.70
2015,02,21,17,46,10.70
2015,02,21,17,47,10.70